CAPE
0 0 0 0 0 0 0 0 0 0 0 0 0 0 0 1 192 509 657 650 580 511 627 765 809 855 795 888 842 829 527 1108
0 0 0 0 0 0 0 0 0 0 0 0 0 0 0 0 34 315 647 745 699 613 649 837 674 860 832 905 895 873 841 980
0 0 0 0 0 0 0 0 0 0 0 0 0 0 0 0 2 85 489 750 809 864 849 805 661 812 886 869 995 974 883 932
0 0 0 0 0 0 11 0 0 0 0 0 0 0 0 0 0 29 209 620 731 802 886 844 1028 939 809 897 698 934 976 1033
0 0 0 0 0 0 0 0 1 0 0 0 0 0 0 0 0 0 158 318 522 422 812 1002 1040 1216 999 878 692 667 996 736
0 0 0 0 0 0 0 1 0 3 0 0 0 0 0 0 0 0 0 157 405 398 1006 1320 1350 1399 1333 1133 898 808 801 871
0 0 0 0 0 0 0 0 0 0 0 0 0 0 0 0 0 5 1 0 166 517 936 1083 1471 1472 1483 1462 1346 1070 1240 1224
0 0 0 0 0 0 0 0 0 0 0 0 0 6 0 76 97 148 202 233 79 5 670 899 1136 1421 1374 1516 1476 1412 1440 1451
0 1 1 0 0 0 0 0 0 0 0 0 1 203 2 0 0 0 63 136 483 313 3 908 823 1364 1328 1523 1584 1593 1607 1712
1 1 16 13 0 0 0 0 0 0 0 0 67 211 19 0 0 0 1 22 292 693 48 242 540 733 1249 1394 1726 1708 1748 1828
20 51 7 75 0 0 0 0 0 0 0 0 0 336 312 0 0 0 0 3 530 967 215 418 1039 1321 1483 1695 1793 1788 1837 1917
25 41 149 10 2 0 1 0 0 0 0 0 138 613 0 0 0 0 1 146 954 624 253 803 1388 1362 1505 1460 1855 1934 1967 2040
41 43 14 5 4 0 6 0 0 0 0 0 0 0 0 0 0 0 113 257 1305 839 1146 1556 1574 1313 1773 1813 2119 1873 1802 1782
36 38 20 7 0 1 3 0 0 0 0 0 0 0 0 0 0 0 7 331 875 1305 920 1142 1472 1737 2030 2160 2377 2584 2672 2625
41 29 9 31 11 5 19 6 0 0 0 0 0 0 0 0 0 0 0 173 743 1247 1429 1694 1360 1469 1692 1918 2180 2566 2985 3177
11 11 19 5 7 16 1 15 1 0 0 0 0 0 0 0 0 0 0 40 737 1236 1389 1571 1958 2198 2478 2530 2124 2157 2521 2855
12 7 15 14 33 18 7 9 5 0 0 0 0 0 0 0 0 0 0 0 210 647 985 1132 1390 1530 1500 1944 2750 2460 2246 2161
31 15 26 16 20 13 9 10 9 1 0 0 0 0 0 0 0 0 0 0 0 0 190 797 878 639 657 784 990 1729 2285 2575
38 22 26 13 10 5 8 8 11 6 0 0 0 0 0 0 0 0 0 0 0 0 0 0 280 101 1 19 675 912 841 1236
CIN
-0 -0 -0 -0 -0 -0 -0 -0 -0 -0 -0 -0 -0 -0 -0 -7 -109 -151 -214 -269 -284 -291 -273 -245 -216 -187 -178 -136 -124 -108 -150 -76
-0 -0 -0 -0 -0 -0 -0 -0 -0 -0 -0 -0 -0 -0 -0 -0 -111 -124 -165 -236 -254 -273 -284 -269 -255 -223 -207 -169 -173 -147 -127 -98
-0 -0 -0 -0 -0 -0 -0 -0 -0 -0 -0 -0 -0 -0 -0 -0 -51 -117 -143 -188 -233 -279 -302 -338 -279 -249 -243 -219 -175 -150 -151 -140
-0 -0 -0 -0 -0 -0 -0 -0 -0 -0 -0 -0 -0 -0 -0 -0 -0 -154 -149 -190 -246 -259 -301 -290 -294 -273 -282 -263 -235 -202 -185 -167
-0 -0 -0 -0 -0 -0 -0 -0 -0 -0 -0 -0 -0 -0 -0 -0 -0 -0 -180 -195 -225 -247 -250 -270 -315 -304 -289 -310 -269 -237 -206 -210
-0 -0 -0 -0 -0 -0 -0 -0 -0 -0 -0 -0 -0 -0 -0 -0 -0 -0 -0 -241 -210 -244 -241 -257 -282 -344 -334 -308 -283 -259 -247 -205
-0 -0 -0 -0 -0 -0 -0 -0 -0 -0 -0 -0 -0 -0 -0 -0 -0 -264 -35 -0 -286 -266 -294 -351 -318 -364 -364 -297 -304 -270 -280 -224
-0 -0 -0 -0 -0 -0 -0 -0 -0 -0 -0 -0 -1 -123 -3 -236 -288 -277 -300 -362 -490 -306 -326 -363 -357 -403 -448 -394 -389 -338 -312 -283
-0 -0 -0 -0 -0 -0 -0 -0 -0 -0 -0 -0 -18 -190 -52 -0 -0 -0 -498 -499 -469 -496 -337 -367 -421 -449 -476 -476 -437 -397 -348 -304
-0 -0 -0 -5 -0 -0 -0 -0 -0 -0 -0 -0 -155 -165 -195 -0 -0 -0 -0 -315 -585 -511 -564 -422 -386 -386 -474 -452 -458 -434 -379 -343
-0 -0 -0 -0 -0 -0 -0 -0 -0 -0 -0 -0 -0 -140 -154 -0 -0 -0 -0 -95 -553 -518 -629 -444 -401 -428 -524 -466 -455 -417 -382 -358
-0 -0 -0 -2 -0 -0 -0 -0 -0 -0 -0 -0 -133 -43 -0 -0 -0 -0 -0 -684 -515 -634 -441 -393 -400 -410 -535 -518 -472 -453 -397 -388
-0 -0 -0 -0 -0 -0 -7 -0 -0 -0 -0 -0 -0 -0 -0 -0 -0 -0 -612 -638 -387 -500 -390 -387 -448 -509 -453 -445 -442 -452 -389 -389
-0 -0 -0 -0 -0 -0 -0 -0 -0 -0 -0 -0 -0 -0 -0 -0 -0 -0 -729 -545 -430 -360 -467 -420 -406 -402 -398 -417 -386 -343 -318 -305
-0 -0 -0 -0 -0 -0 -0 -0 -0 -0 -0 -0 -0 -0 -0 -0 -0 -0 -0 -601 -388 -324 -346 -363 -438 -394 -351 -351 -365 -326 -266 -246
-0 -0 -0 -0 -0 -0 -0 -0 -0 -0 -0 -0 -0 -0 -0 -0 -0 -0 -0 -645 -302 -307 -340 -330 -257 -212 -185 -210 -303 -315 -286 -265
-0 -0 -0 -0 -0 -0 -0 -0 -0 -0 -0 -0 -0 -0 -0 -0 -0 -0 -0 -0 -478 -333 -290 -305 -280 -270 -301 -228 -131 -201 -267 -317
-0 -0 -0 -0 -0 -0 -0 -0 -0 -0 -0 -0 -0 -0 -0 -0 -0 -0 -0 -0 -0 -0 -487 -254 -279 -413 -441 -433 -433 -270 -206 -198
-0 -0 -0 -0 -0 -0 -0 -0 -0 -0 -0 -0 -0 -0 -0 -0 -0 -0 -0 -0 -0 -0 -0 -24 -447 -633 -29 -799 -381 -468 -426 -382
Wind_Speed
5 10 19 15 24 20 13 3 11 14 19 11 12 16 21 17 13 18 21 24 27 26 25 23 23 24 23 21 20 20 20 16
4 4 13 19 12 18 14 20 15 8 19 14 21 14 17 18 17 17 20 22 22 24 25 24 25 23 22 22 22 21 20 17
6 7 16 14 13 14 18 17 14 15 8 13 19 20 19 16 20 19 20 22 23 24 25 24 23 23 24 22 22 20 19 19
8 9 7 9 14 25 14 22 18 12 11 5 12 18 22 23 17 19 21 22 23 24 22 22 24 23 24 23 24 22 20 18
7 9 4 2 1 4 9 7 20 18 13 13 12 10 8 11 12 10 15 15 16 18 21 22 23 22 23 23 25 24 21 21
11 13 13 8 8 5 9 15 16 18 19 19 21 14 12 9 8 8 11 15 17 17 19 20 20 22 21 22 23 22 23 22
16 19 18 21 21 15 12 10 12 17 10 18 17 17 17 6 7 5 7 9 14 18 18 19 20 19 20 20 20 21 21 21
19 19 19 22 23 19 18 18 10 14 14 8 8 6 3 4 8 11 10 10 10 15 18 19 21 21 22 22 22 21 20 21
12 13 14 16 24 19 13 5 13 14 7 10 8 1 6 7 8 11 13 14 13 15 17 20 23 22 23 24 21 22 20 19
10 13 10 2 10 16 11 5 2 5 6 9 5 7 8 11 11 13 14 16 17 15 17 20 23 24 18 20 20 20 20 19
6 7 10 10 7 6 4 7 8 5 6 8 8 8 2 15 13 13 14 15 17 17 18 15 18 19 19 19 19 19 19 19
6 7 6 7 13 11 7 5 9 8 9 11 6 8 5 16 15 15 14 13 14 13 13 16 17 20 20 20 20 21 20 19
13 8 8 9 22 5 7 7 7 8 9 11 10 6 8 12 11 11 12 14 10 2 13 16 17 19 18 18 21 18 16 17
8 6 9 16 10 1 7 5 7 9 11 11 10 9 9 11 13 14 16 17 15 10 8 10 14 16 17 17 14 14 15 16
4 1 5 8 9 8 8 9 7 9 11 11 11 10 11 11 14 14 15 15 16 13 14 13 8 8 10 8 11 14 15 15
3 2 10 2 7 11 10 10 9 8 11 10 11 13 13 12 11 13 15 15 16 19 20 18 15 13 8 4 8 13 13 14
3 4 8 6 10 14 12 11 10 9 9 9 12 12 12 13 12 12 13 14 15 16 15 17 16 15 14 11 5 7 10 11
3 9 7 5 12 14 12 12 11 10 10 8 10 11 12 12 12 13 13 13 15 16 17 14 15 15 15 13 11 7 5 4
7 13 8 11 7 15 14 15 12 9 9 10 7 9 11 9 12 12 13 14 15 14 13 13 14 14 14 13 11 11 6 4
Wind_Direction
265 310 214 201 216 217 260 251 250 221 234 270 219 233 228 228 217 202 204 204 202 199 198 195 195 198 195 193 196 198 199 199
316 309 242 237 199 205 219 239 235 203 220 228 207 216 213 226 216 211 206 206 204 201 199 196 195 196 195 196 196 197 200 200
291 197 228 201 212 214 223 230 235 244 224 225 223 208 221 216 218 216 206 205 203 203 202 198 195 192 195 195 195 197 198 198
272 283 299 303 269 216 221 220 230 266 241 215 222 215 214 224 220 214 213 208 204 205 200 200 199 194 195 194 197 196 195 197
240 225 141 252 249 286 256 274 224 219 220 256 280 268 242 242 239 226 223 224 215 201 201 200 198 197 197 196 199 197 193 196
282 328 321 297 295 280 285 221 228 229 237 228 251 253 272 268 247 236 224 215 204 203 201 200 196 197 197 197 199 195 193 197
285 292 287 271 265 265 250 253 229 222 247 237 237 246 247 258 299 279 247 224 212 208 203 200 199 194 195 195 192 193 191 194
291 292 263 250 252 246 245 242 250 264 273 253 295 295 231 332 318 303 296 282 257 234 214 202 200 196 191 191 188 185 189 194
276 300 303 256 241 228 224 193 201 203 223 315 287 29 26 4 337 312 303 294 279 259 234 207 200 191 193 190 181 184 188 190
281 301 231 231 348 180 139 118 224 248 285 301 252 128 62 21 343 315 307 297 283 266 245 217 205 198 187 184 184 182 185 189
254 253 304 182 43 27 332 79 30 334 333 305 253 226 237 4 341 314 303 290 277 263 251 204 194 181 174 177 178 180 187 192
248 257 241 45 343 330 294 134 22 4 14 349 211 192 13 337 335 327 317 310 294 271 206 177 174 169 165 174 177 186 190 191
242 252 287 355 325 276 207 79 355 5 14 24 57 24 325 329 346 347 3 356 349 204 166 157 155 159 169 175 191 187 184 186
222 247 256 356 339 48 359 294 342 353 7 11 2 358 2 353 1 360 11 19 27 57 90 153 159 164 172 182 173 174 175 183
236 284 301 302 300 290 342 324 333 336 342 357 355 351 352 3 11 8 14 24 40 55 72 63 96 150 160 157 170 173 179 187
287 235 323 101 293 356 349 329 327 323 326 344 351 351 349 360 6 14 17 22 31 47 55 56 57 68 76 127 180 184 189 190
258 301 328 58 310 340 353 348 342 337 334 345 344 350 347 352 2 12 10 15 25 38 44 48 50 50 44 36 76 178 194 199
323 320 304 349 337 344 347 345 337 331 329 343 344 339 342 344 357 4 14 16 24 26 36 38 47 43 32 25 22 35 105 133
351 332 350 3 4 1 2 360 357 349 339 332 336 327 327 336 349 0 11 18 17 16 24 23 31 39 22 10 5 29 339 33